Location: Rounton
(54.4000°N, 1.3500°W)
Time: 06:00:58
(UTC+00:00)

A-11 Canister half - Pass Details

Date: 05 December 2021
Orbit: 1516 x 1684 km, 47.2° (Epoch: 21 January)

Event Time Altitude Azimuth Distance (km) Brightness Sun altitude
Rises 04:50:29 0° 177° (S) 4,737 11.6 -27.5°
Reaches altitude 10° 04:55:24 10° 156° (SSE) 3,792 11.3 -26.8°
Maximum altitude 05:00:03 15° 126° (SE) 3,465 11.5 -26.1°
Drops below altitude 10° 05:04:46 10° 97° (E) 3,867 12.1 -25.4°
Sets 05:09:50 0° 76° (ENE) 4,890 12.8 -24.7°
